owner,sensor,date,latitude,longitude,sea_surface_height_above_sea_level,qcFlag 
COMPS,ioos:station:USF.COMPS:SHP:1,2009-01-01T00:00:00Z,30.0600,-84.2910,0.004,1111122 
COMPS,ioos:station:USF.COMPS:SHP:1,2009-01-01T00:06:00Z,30.0600,-84.2910,-0.011,1111122 
COMPS,ioos:station:USF.COMPS:SHP:1,2009-01-01T00:12:00Z,30.0600,-84.2910,-0.032,1111122 
COMPS,ioos:station:USF.COMPS:SHP:1,2009-01-01T00:18:00Z,30.0600,-84.2910,-0.056,1111122 
COMPS,ioos:station:USF.COMPS:SHP:1,2009-01-01T00:24:00Z,30.0600,-84.2910,-0.076,1111122 
COMPS,ioos:station:USF.COMPS:SHP:1,2009-01-01T00:30:00Z,30.0600,-84.2910,-0.099,1111122 
COMPS,ioos:station:USF.COMPS:SHP:1,2009-01-01T00:36:00Z,30.0600,-84.2910,-0.125,1111122 
COMPS,ioos:station:USF.COMPS:SHP:1,2009-01-01T00:42:00Z,30.0600,-84.2910,-0.148,1111122 
COMPS,ioos:station:USF.COMPS:SHP:1,2009-01-01T00:48:00Z,30.0600,-84.2910,-0.168,1111122 
COMPS,ioos:station:USF.COMPS:SHP:1,2009-01-01T00:54:00Z,30.0600,-84.2910,-0.189,1111122 
COMPS,ioos:station:USF.COMPS:SHP:1,2009-01-01T01:00:00Z,30.0600,-84.2910,-0.213,1111122 
COMPS,ioos:station:USF.COMPS:SHP:1,2009-01-01T01:06:00Z,30.0600,-84.2910,-0.236,1111122 
COMPS,ioos:station:USF.COMPS:SHP:1,2009-01-01T01:12:00Z,30.0600,-84.2910,-0.256,1111122 
COMPS,ioos:station:USF.COMPS:SHP:1,2009-01-01T01:18:00Z,30.0600,-84.2910,-0.273,1111122 
COMPS,ioos:station:USF.COMPS:SHP:1,2009-01-01T01:24:00Z,30.0600,-84.2910,-0.293,1111122 
COMPS,ioos:station:USF.COMPS:SHP:1,2009-01-01T01:30:00Z,30.0600,-84.2910,-0.314,1111122 
COMPS,ioos:station:USF.COMPS:SHP:1,2009-01-01T01:36:00Z,30.0600,-84.2910,-0.335,1111122 
COMPS,ioos:station:USF.COMPS:SHP:1,2009-01-01T01:42:00Z,30.0600,-84.2910,-0.355,1111122 
COMPS,ioos:station:USF.COMPS:SHP:1,2009-01-01T01:48:00Z,30.0600,-84.2910,-0.373,1111122 
COMPS,ioos:station:USF.COMPS:SHP:1,2009-01-01T01:54:00Z,30.0600,-84.2910,-0.391,1111122 
COMPS,ioos:station:USF.COMPS:SHP:1,2009-01-01T02:00:00Z,30.0600,-84.2910,-0.408,1111122 
COMPS,ioos:station:USF.COMPS:SHP:1,2009-01-01T02:06:00Z,30.0600,-84.2910,-0.423,1111122 
COMPS,ioos:station:USF.COMPS:SHP:1,2009-01-01T02:12:00Z,30.0600,-84.2910,-0.438,1111122 
COMPS,ioos:station:USF.COMPS:SHP:1,2009-01-01T02:18:00Z,30.0600,-84.2910,-0.453,1111122 
COMPS,ioos:station:USF.COMPS:SHP:1,2009-01-01T02:24:00Z,30.0600,-84.2910,-0.469,1111122 
COMPS,ioos:station:USF.COMPS:SHP:1,2009-01-01T02:30:00Z,30.0600,-84.2910,-0.484,1111122 
COMPS,ioos:station:USF.COMPS:SHP:1,2009-01-01T02:36:00Z,30.0600,-84.2910,-0.499,1111122 
COMPS,ioos:station:USF.COMPS:SHP:1,2009-01-01T02:42:00Z,30.0600,-84.2910,-0.513,1111122 
COMPS,ioos:station:USF.COMPS:SHP:1,2009-01-01T02:48:00Z,30.0600,-84.2910,-0.525,1111122 
COMPS,ioos:station:USF.COMPS:SHP:1,2009-01-01T02:54:00Z,30.0600,-84.2910,-0.535,1111122 
COMPS,ioos:station:USF.COMPS:SHP:1,2009-01-01T03:00:00Z,30.0600,-84.2910,-0.546,1111122 
COMPS,ioos:station:USF.COMPS:SHP:1,2009-01-01T03:06:00Z,30.0600,-84.2910,-0.556,1111122 
COMPS,ioos:station:USF.COMPS:SHP:1,2009-01-01T03:12:00Z,30.0600,-84.2910,-0.564,1111122 
COMPS,ioos:station:USF.COMPS:SHP:1,2009-01-01T03:18:00Z,30.0600,-84.2910,-0.569,1111122 
COMPS,ioos:station:USF.COMPS:SHP:1,2009-01-01T03:24:00Z,30.0600,-84.2910,-0.574,1111122 
COMPS,ioos:station:USF.COMPS:SHP:1,2009-01-01T03:30:00Z,30.0600,-84.2910,-0.576,1111122 
COMPS,ioos:station:USF.COMPS:SHP:1,2009-01-01T03:36:00Z,30.0600,-84.2910,-0.575,1111122 
COMPS,ioos:station:USF.COMPS:SHP:1,2009-01-01T03:42:00Z,30.0600,-84.2910,-0.576,1111122 
COMPS,ioos:station:USF.COMPS:SHP:1,2009-01-01T03:48:00Z,30.0600,-84.2910,-0.579,1111122 
COMPS,ioos:station:USF.COMPS:SHP:1,2009-01-01T03:54:00Z,30.0600,-84.2910,-0.582,1111122 
COMPS,ioos:station:USF.COMPS:SHP:1,2009-01-01T04:00:00Z,30.0600,-84.2910,-0.585,1111122 
COMPS,ioos:station:USF.COMPS:SHP:1,2009-01-01T04:06:00Z,30.0600,-84.2910,-0.588,1111122 
COMPS,ioos:station:USF.COMPS:SHP:1,2009-01-01T04:12:00Z,30.0600,-84.2910,-0.591,1111122 
COMPS,ioos:station:USF.COMPS:SHP:1,2009-01-01T04:18:00Z,30.0600,-84.2910,-0.592,1111122 
COMPS,ioos:station:USF.COMPS:SHP:1,2009-01-01T04:24:00Z,30.0600,-84.2910,-0.587,1111122 
COMPS,ioos:station:USF.COMPS:SHP:1,2009-01-01T04:30:00Z,30.0600,-84.2910,-0.58,1111122 
COMPS,ioos:station:USF.COMPS:SHP:1,2009-01-01T04:36:00Z,30.0600,-84.2910,-0.578,1111122 
COMPS,ioos:station:USF.COMPS:SHP:1,2009-01-01T04:42:00Z,30.0600,-84.2910,-0.581,1111122 
COMPS,ioos:station:USF.COMPS:SHP:1,2009-01-01T04:48:00Z,30.0600,-84.2910,-0.58,1111122 
COMPS,ioos:station:USF.COMPS:SHP:1,2009-01-01T04:54:00Z,30.0600,-84.2910,-0.579,1111122 
COMPS,ioos:station:USF.COMPS:SHP:1,2009-01-01T05:00:00Z,30.0600,-84.2910,-0.581,1111122 
COMPS,ioos:station:USF.COMPS:SHP:1,2009-01-01T05:06:00Z,30.0600,-84.2910,-0.58,1111122 
COMPS,ioos:station:USF.COMPS:SHP:1,2009-01-01T05:12:00Z,30.0600,-84.2910,-0.572,1111122 
COMPS,ioos:station:USF.COMPS:SHP:1,2009-01-01T05:18:00Z,30.0600,-84.2910,-0.56,1111122 
COMPS,ioos:station:USF.COMPS:SHP:1,2009-01-01T05:24:00Z,30.0600,-84.2910,-0.551,1111122 
COMPS,ioos:station:USF.COMPS:SHP:1,2009-01-01T05:30:00Z,30.0600,-84.2910,-0.54,1111122 
COMPS,ioos:station:USF.COMPS:SHP:1,2009-01-01T05:36:00Z,30.0600,-84.2910,-0.526,1111122 
COMPS,ioos:station:USF.COMPS:SHP:1,2009-01-01T05:42:00Z,30.0600,-84.2910,-0.513,1111122 
COMPS,ioos:station:USF.COMPS:SHP:1,2009-01-01T05:48:00Z,30.0600,-84.2910,-0.5,1111122 
COMPS,ioos:station:USF.COMPS:SHP:1,2009-01-01T05:54:00Z,30.0600,-84.2910,-0.487,1111122 
COMPS,ioos:station:USF.COMPS:SHP:1,2009-01-01T06:00:00Z,30.0600,-84.2910,-0.473,1111122 
COMPS,ioos:station:USF.COMPS:SHP:1,2009-01-01T06:06:00Z,30.0600,-84.2910,-0.459,1111122 
COMPS,ioos:station:USF.COMPS:SHP:1,2009-01-01T06:12:00Z,30.0600,-84.2910,-0.442,1111122 
COMPS,ioos:station:USF.COMPS:SHP:1,2009-01-01T06:18:00Z,30.0600,-84.2910,-0.422,1111122 
COMPS,ioos:station:USF.COMPS:SHP:1,2009-01-01T06:24:00Z,30.0600,-84.2910,-0.401,1111122 
COMPS,ioos:station:USF.COMPS:SHP:1,2009-01-01T06:30:00Z,30.0600,-84.2910,-0.386,1111122 
COMPS,ioos:station:USF.COMPS:SHP:1,2009-01-01T06:36:00Z,30.0600,-84.2910,-0.372,1111122 
COMPS,ioos:station:USF.COMPS:SHP:1,2009-01-01T06:42:00Z,30.0600,-84.2910,-0.354,1111122 
COMPS,ioos:station:USF.COMPS:SHP:1,2009-01-01T06:48:00Z,30.0600,-84.2910,-0.338,1111122 
COMPS,ioos:station:USF.COMPS:SHP:1,2009-01-01T06:54:00Z,30.0600,-84.2910,-0.326,1111122 
COMPS,ioos:station:USF.COMPS:SHP:1,2009-01-01T07:00:00Z,30.0600,-84.2910,-0.312,1111122 
COMPS,ioos:station:USF.COMPS:SHP:1,2009-01-01T07:06:00Z,30.0600,-84.2910,-0.3,1111122 
COMPS,ioos:station:USF.COMPS:SHP:1,2009-01-01T07:12:00Z,30.0600,-84.2910,-0.292,1111122 
COMPS,ioos:station:USF.COMPS:SHP:1,2009-01-01T07:18:00Z,30.0600,-84.2910,-0.277,1111122 
COMPS,ioos:station:USF.COMPS:SHP:1,2009-01-01T07:24:00Z,30.0600,-84.2910,-0.258,1111122 
COMPS,ioos:station:USF.COMPS:SHP:1,2009-01-01T07:30:00Z,30.0600,-84.2910,-0.244,1111122 
COMPS,ioos:station:USF.COMPS:SHP:1,2009-01-01T07:36:00Z,30.0600,-84.2910,-0.231,1111122 
COMPS,ioos:station:USF.COMPS:SHP:1,2009-01-01T07:42:00Z,30.0600,-84.2910,-0.214,1111122 
COMPS,ioos:station:USF.COMPS:SHP:1,2009-01-01T07:48:00Z,30.0600,-84.2910,-0.199,1111122 
COMPS,ioos:station:USF.COMPS:SHP:1,2009-01-01T07:54:00Z,30.0600,-84.2910,-0.187,1111122 
COMPS,ioos:station:USF.COMPS:SHP:1,2009-01-01T08:00:00Z,30.0600,-84.2910,-0.179,1111122 
COMPS,ioos:station:USF.COMPS:SHP:1,2009-01-01T08:06:00Z,30.0600,-84.2910,-0.167,1111122 
COMPS,ioos:station:USF.COMPS:SHP:1,2009-01-01T08:12:00Z,30.0600,-84.2910,-0.153,1111122 
COMPS,ioos:station:USF.COMPS:SHP:1,2009-01-01T08:18:00Z,30.0600,-84.2910,-0.143,1111122 
COMPS,ioos:station:USF.COMPS:SHP:1,2009-01-01T08:24:00Z,30.0600,-84.2910,-0.136,1111122 
COMPS,ioos:station:USF.COMPS:SHP:1,2009-01-01T08:30:00Z,30.0600,-84.2910,-0.126,1111122 
COMPS,ioos:station:USF.COMPS:SHP:1,2009-01-01T08:36:00Z,30.0600,-84.2910,-0.115,1111122 
COMPS,ioos:station:USF.COMPS:SHP:1,2009-01-01T08:42:00Z,30.0600,-84.2910,-0.1,1111122 
COMPS,ioos:station:USF.COMPS:SHP:1,2009-01-01T08:48:00Z,30.0600,-84.2910,-0.086,1111122 
COMPS,ioos:station:USF.COMPS:SHP:1,2009-01-01T08:54:00Z,30.0600,-84.2910,-0.074,1111122 
COMPS,ioos:station:USF.COMPS:SHP:1,2009-01-01T09:00:00Z,30.0600,-84.2910,-0.073,1111122 
COMPS,ioos:station:USF.COMPS:SHP:1,2009-01-01T09:06:00Z,30.0600,-84.2910,-0.071,1111122 
COMPS,ioos:station:USF.COMPS:SHP:1,2009-01-01T09:12:00Z,30.0600,-84.2910,-0.07,1111122 
COMPS,ioos:station:USF.COMPS:SHP:1,2009-01-01T09:18:00Z,30.0600,-84.2910,-0.065,1111122 
COMPS,ioos:station:USF.COMPS:SHP:1,2009-01-01T09:24:00Z,30.0600,-84.2910,-0.055,1111122 
COMPS,ioos:station:USF.COMPS:SHP:1,2009-01-01T09:30:00Z,30.0600,-84.2910,-0.045,1111122 
COMPS,ioos:station:USF.COMPS:SHP:1,2009-01-01T09:36:00Z,30.0600,-84.2910,-0.036,1111122 
COMPS,ioos:station:USF.COMPS:SHP:1,2009-01-01T09:42:00Z,30.0600,-84.2910,-0.033,1111122 
COMPS,ioos:station:USF.COMPS:SHP:1,2009-01-01T09:48:00Z,30.0600,-84.2910,-0.033,1111122 
COMPS,ioos:station:USF.COMPS:SHP:1,2009-01-01T09:54:00Z,30.0600,-84.2910,-0.038,1111122 
COMPS,ioos:station:USF.COMPS:SHP:1,2009-01-01T10:00:00Z,30.0600,-84.2910,-0.036,1111122 
COMPS,ioos:station:USF.COMPS:SHP:1,2009-01-01T10:06:00Z,30.0600,-84.2910,-0.035,1111122 
COMPS,ioos:station:USF.COMPS:SHP:1,2009-01-01T10:12:00Z,30.0600,-84.2910,-0.035,1111122 
COMPS,ioos:station:USF.COMPS:SHP:1,2009-01-01T10:18:00Z,30.0600,-84.2910,-0.038,1111122 
COMPS,ioos:station:USF.COMPS:SHP:1,2009-01-01T10:24:00Z,30.0600,-84.2910,-0.042,1111122 
COMPS,ioos:station:USF.COMPS:SHP:1,2009-01-01T10:30:00Z,30.0600,-84.2910,-0.048,1111122 
COMPS,ioos:station:USF.COMPS:SHP:1,2009-01-01T10:36:00Z,30.0600,-84.2910,-0.055,1111122 
COMPS,ioos:station:USF.COMPS:SHP:1,2009-01-01T10:42:00Z,30.0600,-84.2910,-0.058,1111122 
COMPS,ioos:station:USF.COMPS:SHP:1,2009-01-01T10:48:00Z,30.0600,-84.2910,-0.066,1111122 
COMPS,ioos:station:USF.COMPS:SHP:1,2009-01-01T10:54:00Z,30.0600,-84.2910,-0.081,1111122 
COMPS,ioos:station:USF.COMPS:SHP:1,2009-01-01T11:00:00Z,30.0600,-84.2910,-0.094,1111122 
COMPS,ioos:station:USF.COMPS:SHP:1,2009-01-01T11:06:00Z,30.0600,-84.2910,-0.105,1111122 
COMPS,ioos:station:USF.COMPS:SHP:1,2009-01-01T11:12:00Z,30.0600,-84.2910,-0.114,1111122 
COMPS,ioos:station:USF.COMPS:SHP:1,2009-01-01T11:18:00Z,30.0600,-84.2910,-0.125,1111122 
COMPS,ioos:station:USF.COMPS:SHP:1,2009-01-01T11:24:00Z,30.0600,-84.2910,-0.142,1111122 
COMPS,ioos:station:USF.COMPS:SHP:1,2009-01-01T11:30:00Z,30.0600,-84.2910,-0.152,1111122 
COMPS,ioos:station:USF.COMPS:SHP:1,2009-01-01T11:36:00Z,30.0600,-84.2910,-0.162,1111122 
COMPS,ioos:station:USF.COMPS:SHP:1,2009-01-01T11:42:00Z,30.0600,-84.2910,-0.176,1111122 
COMPS,ioos:station:USF.COMPS:SHP:1,2009-01-01T11:48:00Z,30.0600,-84.2910,-0.194,1111122 
COMPS,ioos:station:USF.COMPS:SHP:1,2009-01-01T11:54:00Z,30.0600,-84.2910,-0.213,1111122 
COMPS,ioos:station:USF.COMPS:SHP:1,2009-01-01T12:00:00Z,30.0600,-84.2910,-0.23,1111122 
COMPS,ioos:station:USF.COMPS:SHP:1,2009-01-01T12:06:00Z,30.0600,-84.2910,-0.248,1111122 
COMPS,ioos:station:USF.COMPS:SHP:1,2009-01-01T12:12:00Z,30.0600,-84.2910,-0.266,1111122 
COMPS,ioos:station:USF.COMPS:SHP:1,2009-01-01T12:18:00Z,30.0600,-84.2910,-0.28,1111122 
COMPS,ioos:station:USF.COMPS:SHP:1,2009-01-01T12:24:00Z,30.0600,-84.2910,-0.292,1111122 
COMPS,ioos:station:USF.COMPS:SHP:1,2009-01-01T12:30:00Z,30.0600,-84.2910,-0.307,1111122 
COMPS,ioos:station:USF.COMPS:SHP:1,2009-01-01T12:36:00Z,30.0600,-84.2910,-0.323,1111122 
COMPS,ioos:station:USF.COMPS:SHP:1,2009-01-01T12:42:00Z,30.0600,-84.2910,-0.336,1111122 
COMPS,ioos:station:USF.COMPS:SHP:1,2009-01-01T12:48:00Z,30.0600,-84.2910,-0.35,1111122 
COMPS,ioos:station:USF.COMPS:SHP:1,2009-01-01T12:54:00Z,30.0600,-84.2910,-0.369,1111122 
COMPS,ioos:station:USF.COMPS:SHP:1,2009-01-01T13:00:00Z,30.0600,-84.2910,-0.386,1111122 
COMPS,ioos:station:USF.COMPS:SHP:1,2009-01-01T13:06:00Z,30.0600,-84.2910,-0.4,1111122 
COMPS,ioos:station:USF.COMPS:SHP:1,2009-01-01T13:12:00Z,30.0600,-84.2910,-0.415,1111122 
COMPS,ioos:station:USF.COMPS:SHP:1,2009-01-01T13:18:00Z,30.0600,-84.2910,-0.431,1111122 
COMPS,ioos:station:USF.COMPS:SHP:1,2009-01-01T13:24:00Z,30.0600,-84.2910,-0.446,1111122 
COMPS,ioos:station:USF.COMPS:SHP:1,2009-01-01T13:30:00Z,30.0600,-84.2910,-0.462,1111122 
COMPS,ioos:station:USF.COMPS:SHP:1,2009-01-01T13:36:00Z,30.0600,-84.2910,-0.477,1111122 
COMPS,ioos:station:USF.COMPS:SHP:1,2009-01-01T13:42:00Z,30.0600,-84.2910,-0.492,1111122 
COMPS,ioos:station:USF.COMPS:SHP:1,2009-01-01T13:48:00Z,30.0600,-84.2910,-0.504,1111122 
COMPS,ioos:station:USF.COMPS:SHP:1,2009-01-01T13:54:00Z,30.0600,-84.2910,-0.517,1111122 
COMPS,ioos:station:USF.COMPS:SHP:1,2009-01-01T14:00:00Z,30.0600,-84.2910,-0.53,1111122 
COMPS,ioos:station:USF.COMPS:SHP:1,2009-01-01T14:06:00Z,30.0600,-84.2910,-0.539,1111122 
COMPS,ioos:station:USF.COMPS:SHP:1,2009-01-01T14:12:00Z,30.0600,-84.2910,-0.551,1111122 
COMPS,ioos:station:USF.COMPS:SHP:1,2009-01-01T14:18:00Z,30.0600,-84.2910,-0.56,1111122 
COMPS,ioos:station:USF.COMPS:SHP:1,2009-01-01T14:24:00Z,30.0600,-84.2910,-0.567,1111122 
COMPS,ioos:station:USF.COMPS:SHP:1,2009-01-01T14:30:00Z,30.0600,-84.2910,-0.576,1111122 
COMPS,ioos:station:USF.COMPS:SHP:1,2009-01-01T14:36:00Z,30.0600,-84.2910,-0.588,1111122 
COMPS,ioos:station:USF.COMPS:SHP:1,2009-01-01T14:42:00Z,30.0600,-84.2910,-0.599,1111122 
COMPS,ioos:station:USF.COMPS:SHP:1,2009-01-01T14:48:00Z,30.0600,-84.2910,-0.605,1111122 
COMPS,ioos:station:USF.COMPS:SHP:1,2009-01-01T14:54:00Z,30.0600,-84.2910,-0.613,1111122 
COMPS,ioos:station:USF.COMPS:SHP:1,2009-01-01T15:00:00Z,30.0600,-84.2910,-0.621,1111122 
COMPS,ioos:station:USF.COMPS:SHP:1,2009-01-01T15:06:00Z,30.0600,-84.2910,-0.63,1111122 
COMPS,ioos:station:USF.COMPS:SHP:1,2009-01-01T15:12:00Z,30.0600,-84.2910,-0.638,1111122 
COMPS,ioos:station:USF.COMPS:SHP:1,2009-01-01T15:18:00Z,30.0600,-84.2910,-0.647,1111122 
COMPS,ioos:station:USF.COMPS:SHP:1,2009-01-01T15:24:00Z,30.0600,-84.2910,-0.658,1111122 
COMPS,ioos:station:USF.COMPS:SHP:1,2009-01-01T15:30:00Z,30.0600,-84.2910,-0.668,1111122 
COMPS,ioos:station:USF.COMPS:SHP:1,2009-01-01T15:36:00Z,30.0600,-84.2910,-0.674,1111122 
COMPS,ioos:station:USF.COMPS:SHP:1,2009-01-01T15:42:00Z,30.0600,-84.2910,-0.674,1111122 
COMPS,ioos:station:USF.COMPS:SHP:1,2009-01-01T15:48:00Z,30.0600,-84.2910,-0.676,1111122 
COMPS,ioos:station:USF.COMPS:SHP:1,2009-01-01T15:54:00Z,30.0600,-84.2910,-0.676,1111122 
COMPS,ioos:station:USF.COMPS:SHP:1,2009-01-01T16:00:00Z,30.0600,-84.2910,-0.674,1111122 
COMPS,ioos:station:USF.COMPS:SHP:1,2009-01-01T16:06:00Z,30.0600,-84.2910,-0.671,1111122 
COMPS,ioos:station:USF.COMPS:SHP:1,2009-01-01T16:12:00Z,30.0600,-84.2910,-0.67,1111122 
COMPS,ioos:station:USF.COMPS:SHP:1,2009-01-01T16:18:00Z,30.0600,-84.2910,-0.672,1111122 
COMPS,ioos:station:USF.COMPS:SHP:1,2009-01-01T16:24:00Z,30.0600,-84.2910,-0.671,1111122 
COMPS,ioos:station:USF.COMPS:SHP:1,2009-01-01T16:30:00Z,30.0600,-84.2910,-0.664,1111122 
COMPS,ioos:station:USF.COMPS:SHP:1,2009-01-01T16:36:00Z,30.0600,-84.2910,-0.659,1111122 
COMPS,ioos:station:USF.COMPS:SHP:1,2009-01-01T16:42:00Z,30.0600,-84.2910,-0.661,1111122 
COMPS,ioos:station:USF.COMPS:SHP:1,2009-01-01T16:48:00Z,30.0600,-84.2910,-0.666,1111122 
COMPS,ioos:station:USF.COMPS:SHP:1,2009-01-01T16:54:00Z,30.0600,-84.2910,-0.663,1111122 
COMPS,ioos:station:USF.COMPS:SHP:1,2009-01-01T17:00:00Z,30.0600,-84.2910,-0.651,1111122 
COMPS,ioos:station:USF.COMPS:SHP:1,2009-01-01T17:06:00Z,30.0600,-84.2910,-0.642,1111122 
COMPS,ioos:station:USF.COMPS:SHP:1,2009-01-01T17:12:00Z,30.0600,-84.2910,-0.637,1111122 
COMPS,ioos:station:USF.COMPS:SHP:1,2009-01-01T17:18:00Z,30.0600,-84.2910,-0.627,1111122 
COMPS,ioos:station:USF.COMPS:SHP:1,2009-01-01T17:24:00Z,30.0600,-84.2910,-0.609,1111122 
COMPS,ioos:station:USF.COMPS:SHP:1,2009-01-01T17:30:00Z,30.0600,-84.2910,-0.59,1111122 
COMPS,ioos:station:USF.COMPS:SHP:1,2009-01-01T17:36:00Z,30.0600,-84.2910,-0.575,1111122 
COMPS,ioos:station:USF.COMPS:SHP:1,2009-01-01T17:42:00Z,30.0600,-84.2910,-0.56,1111122 
COMPS,ioos:station:USF.COMPS:SHP:1,2009-01-01T17:48:00Z,30.0600,-84.2910,-0.543,1111122 
COMPS,ioos:station:USF.COMPS:SHP:1,2009-01-01T17:54:00Z,30.0600,-84.2910,-0.528,1111122 
COMPS,ioos:station:USF.COMPS:SHP:1,2009-01-01T18:00:00Z,30.0600,-84.2910,-0.518,1111122 
COMPS,ioos:station:USF.COMPS:SHP:1,2009-01-01T18:06:00Z,30.0600,-84.2910,-0.508,1111122 
COMPS,ioos:station:USF.COMPS:SHP:1,2009-01-01T18:12:00Z,30.0600,-84.2910,-0.493,1111122 
COMPS,ioos:station:USF.COMPS:SHP:1,2009-01-01T18:18:00Z,30.0600,-84.2910,-0.474,1111122 
COMPS,ioos:station:USF.COMPS:SHP:1,2009-01-01T18:24:00Z,30.0600,-84.2910,-0.455,1111122 
COMPS,ioos:station:USF.COMPS:SHP:1,2009-01-01T18:30:00Z,30.0600,-84.2910,-0.44,1111122 
COMPS,ioos:station:USF.COMPS:SHP:1,2009-01-01T18:36:00Z,30.0600,-84.2910,-0.421,1111122 
COMPS,ioos:station:USF.COMPS:SHP:1,2009-01-01T18:42:00Z,30.0600,-84.2910,-0.4,1111122 
COMPS,ioos:station:USF.COMPS:SHP:1,2009-01-01T18:48:00Z,30.0600,-84.2910,-0.378,1111122 
COMPS,ioos:station:USF.COMPS:SHP:1,2009-01-01T18:54:00Z,30.0600,-84.2910,-0.36,1111122 
COMPS,ioos:station:USF.COMPS:SHP:1,2009-01-01T19:00:00Z,30.0600,-84.2910,-0.337,1111122 
COMPS,ioos:station:USF.COMPS:SHP:1,2009-01-01T19:06:00Z,30.0600,-84.2910,-0.311,1111122 
COMPS,ioos:station:USF.COMPS:SHP:1,2009-01-01T19:12:00Z,30.0600,-84.2910,-0.288,1111122 
COMPS,ioos:station:USF.COMPS:SHP:1,2009-01-01T19:18:00Z,30.0600,-84.2910,-0.268,1111122 
COMPS,ioos:station:USF.COMPS:SHP:1,2009-01-01T19:24:00Z,30.0600,-84.2910,-0.247,1111122 
COMPS,ioos:station:USF.COMPS:SHP:1,2009-01-01T19:30:00Z,30.0600,-84.2910,-0.222,1111122 
COMPS,ioos:station:USF.COMPS:SHP:1,2009-01-01T19:36:00Z,30.0600,-84.2910,-0.203,1111122 
COMPS,ioos:station:USF.COMPS:SHP:1,2009-01-01T19:42:00Z,30.0600,-84.2910,-0.186,1111122 
COMPS,ioos:station:USF.COMPS:SHP:1,2009-01-01T19:48:00Z,30.0600,-84.2910,-0.167,1111122 
COMPS,ioos:station:USF.COMPS:SHP:1,2009-01-01T19:54:00Z,30.0600,-84.2910,-0.15,1111122 
COMPS,ioos:station:USF.COMPS:SHP:1,2009-01-01T20:00:00Z,30.0600,-84.2910,-0.125,1111122 
COMPS,ioos:station:USF.COMPS:SHP:1,2009-01-01T20:06:00Z,30.0600,-84.2910,-0.099,1111122 
COMPS,ioos:station:USF.COMPS:SHP:1,2009-01-01T20:12:00Z,30.0600,-84.2910,-0.078,1111122 
COMPS,ioos:station:USF.COMPS:SHP:1,2009-01-01T20:18:00Z,30.0600,-84.2910,-0.063,1111122 
COMPS,ioos:station:USF.COMPS:SHP:1,2009-01-01T20:24:00Z,30.0600,-84.2910,-0.049,1111122 
COMPS,ioos:station:USF.COMPS:SHP:1,2009-01-01T20:30:00Z,30.0600,-84.2910,-0.032,1111122 
COMPS,ioos:station:USF.COMPS:SHP:1,2009-01-01T20:36:00Z,30.0600,-84.2910,-0.013,1111122 
COMPS,ioos:station:USF.COMPS:SHP:1,2009-01-01T20:42:00Z,30.0600,-84.2910,0.01,1111122 
COMPS,ioos:station:USF.COMPS:SHP:1,2009-01-01T20:48:00Z,30.0600,-84.2910,0.023,1111122 
COMPS,ioos:station:USF.COMPS:SHP:1,2009-01-01T20:54:00Z,30.0600,-84.2910,0.038,1111122 
COMPS,ioos:station:USF.COMPS:SHP:1,2009-01-01T21:00:00Z,30.0600,-84.2910,0.06,1111122 
COMPS,ioos:station:USF.COMPS:SHP:1,2009-01-01T21:06:00Z,30.0600,-84.2910,0.077,1111122 
COMPS,ioos:station:USF.COMPS:SHP:1,2009-01-01T21:12:00Z,30.0600,-84.2910,0.086,1111122 
COMPS,ioos:station:USF.COMPS:SHP:1,2009-01-01T21:18:00Z,30.0600,-84.2910,0.094,1111122 
COMPS,ioos:station:USF.COMPS:SHP:1,2009-01-01T21:24:00Z,30.0600,-84.2910,0.101,1111122 
COMPS,ioos:station:USF.COMPS:SHP:1,2009-01-01T21:30:00Z,30.0600,-84.2910,0.121,1111122 
COMPS,ioos:station:USF.COMPS:SHP:1,2009-01-01T21:36:00Z,30.0600,-84.2910,0.145,1111122 
COMPS,ioos:station:USF.COMPS:SHP:1,2009-01-01T21:42:00Z,30.0600,-84.2910,0.154,1111122 
COMPS,ioos:station:USF.COMPS:SHP:1,2009-01-01T21:48:00Z,30.0600,-84.2910,0.157,1111122 
COMPS,ioos:station:USF.COMPS:SHP:1,2009-01-01T21:54:00Z,30.0600,-84.2910,0.156,1111122 
COMPS,ioos:station:USF.COMPS:SHP:1,2009-01-01T22:00:00Z,30.0600,-84.2910,0.16,1111122 
COMPS,ioos:station:USF.COMPS:SHP:1,2009-01-01T22:06:00Z,30.0600,-84.2910,0.161,1111122 
COMPS,ioos:station:USF.COMPS:SHP:1,2009-01-01T22:12:00Z,30.0600,-84.2910,0.17,1111122 
COMPS,ioos:station:USF.COMPS:SHP:1,2009-01-01T22:18:00Z,30.0600,-84.2910,0.182,1111122 
COMPS,ioos:station:USF.COMPS:SHP:1,2009-01-01T22:24:00Z,30.0600,-84.2910,0.183,1111122 
COMPS,ioos:station:USF.COMPS:SHP:1,2009-01-01T22:30:00Z,30.0600,-84.2910,0.175,1111122 
COMPS,ioos:station:USF.COMPS:SHP:1,2009-01-01T22:36:00Z,30.0600,-84.2910,0.174,1111122 
COMPS,ioos:station:USF.COMPS:SHP:1,2009-01-01T22:42:00Z,30.0600,-84.2910,0.184,1111122 
COMPS,ioos:station:USF.COMPS:SHP:1,2009-01-01T22:48:00Z,30.0600,-84.2910,0.18,1111122 
COMPS,ioos:station:USF.COMPS:SHP:1,2009-01-01T22:54:00Z,30.0600,-84.2910,0.17,1111122 
COMPS,ioos:station:USF.COMPS:SHP:1,2009-01-01T23:00:00Z,30.0600,-84.2910,0.172,1111122 
COMPS,ioos:station:USF.COMPS:SHP:1,2009-01-01T23:06:00Z,30.0600,-84.2910,0.175,1111122 
COMPS,ioos:station:USF.COMPS:SHP:1,2009-01-01T23:12:00Z,30.0600,-84.2910,0.178,1111122 
COMPS,ioos:station:USF.COMPS:SHP:1,2009-01-01T23:18:00Z,30.0600,-84.2910,0.172,1111122 
COMPS,ioos:station:USF.COMPS:SHP:1,2009-01-01T23:24:00Z,30.0600,-84.2910,0.169,1111122 
COMPS,ioos:station:USF.COMPS:SHP:1,2009-01-01T23:30:00Z,30.0600,-84.2910,0.152,1111122 
COMPS,ioos:station:USF.COMPS:SHP:1,2009-01-01T23:36:00Z,30.0600,-84.2910,0.137,1111122 
COMPS,ioos:station:USF.COMPS:SHP:1,2009-01-01T23:42:00Z,30.0600,-84.2910,0.129,1111122 
COMPS,ioos:station:USF.COMPS:SHP:1,2009-01-01T23:48:00Z,30.0600,-84.2910,0.127,1111122 
COMPS,ioos:station:USF.COMPS:SHP:1,2009-01-01T23:54:00Z,30.0600,-84.2910,0.134,1111122 
COMPS,ioos:station:USF.COMPS:SHP:1,2009-01-02T00:00:00Z,30.0600,-84.2910,0.13,1111122 
COMPS,ioos:station:USF.COMPS:SHP:1,2009-01-02T00:06:00Z,30.0600,-84.2910,0.113,1111122 
COMPS,ioos:station:USF.COMPS:SHP:1,2009-01-02T00:12:00Z,30.0600,-84.2910,0.095,1111122 
COMPS,ioos:station:USF.COMPS:SHP:1,2009-01-02T00:18:00Z,30.0600,-84.2910,0.084,1111122 
COMPS,ioos:station:USF.COMPS:SHP:1,2009-01-02T00:24:00Z,30.0600,-84.2910,0.069,1111122 
COMPS,ioos:station:USF.COMPS:SHP:1,2009-01-02T00:30:00Z,30.0600,-84.2910,0.065,1111122 
COMPS,ioos:station:USF.COMPS:SHP:1,2009-01-02T00:36:00Z,30.0600,-84.2910,0.066,1111122 
COMPS,ioos:station:USF.COMPS:SHP:1,2009-01-02T00:42:00Z,30.0600,-84.2910,0.061,1111122 
COMPS,ioos:station:USF.COMPS:SHP:1,2009-01-02T00:48:00Z,30.0600,-84.2910,0.043,1111122 
COMPS,ioos:station:USF.COMPS:SHP:1,2009-01-02T00:54:00Z,30.0600,-84.2910,0.026,1111122 
COMPS,ioos:station:USF.COMPS:SHP:1,2009-01-02T01:00:00Z,30.0600,-84.2910,0.011,1111122 
COMPS,ioos:station:USF.COMPS:SHP:1,2009-01-02T01:06:00Z,30.0600,-84.2910,0.001,1111122 
COMPS,ioos:station:USF.COMPS:SHP:1,2009-01-02T01:12:00Z,30.0600,-84.2910,-0.003,1111122 
COMPS,ioos:station:USF.COMPS:SHP:1,2009-01-02T01:18:00Z,30.0600,-84.2910,-0.014,1111122 
COMPS,ioos:station:USF.COMPS:SHP:1,2009-01-02T01:24:00Z,30.0600,-84.2910,-0.026,1111122 
COMPS,ioos:station:USF.COMPS:SHP:1,2009-01-02T01:30:00Z,30.0600,-84.2910,-0.041,1111122 
COMPS,ioos:station:USF.COMPS:SHP:1,2009-01-02T01:36:00Z,30.0600,-84.2910,-0.054,1111122 
COMPS,ioos:station:USF.COMPS:SHP:1,2009-01-02T01:42:00Z,30.0600,-84.2910,-0.061,1111122 
COMPS,ioos:station:USF.COMPS:SHP:1,2009-01-02T01:48:00Z,30.0600,-84.2910,-0.063,1111122 
COMPS,ioos:station:USF.COMPS:SHP:1,2009-01-02T01:54:00Z,30.0600,-84.2910,-0.069,1111122 
COMPS,ioos:station:USF.COMPS:SHP:1,2009-01-02T02:00:00Z,30.0600,-84.2910,-0.08,1111122 
COMPS,ioos:station:USF.COMPS:SHP:1,2009-01-02T02:06:00Z,30.0600,-84.2910,-0.087,1111122 
COMPS,ioos:station:USF.COMPS:SHP:1,2009-01-02T02:12:00Z,30.0600,-84.2910,-0.089,1111122 
COMPS,ioos:station:USF.COMPS:SHP:1,2009-01-02T02:18:00Z,30.0600,-84.2910,-0.091,1111122 
COMPS,ioos:station:USF.COMPS:SHP:1,2009-01-02T02:24:00Z,30.0600,-84.2910,-0.095,1111122 
COMPS,ioos:station:USF.COMPS:SHP:1,2009-01-02T02:30:00Z,30.0600,-84.2910,-0.096,1111122 
COMPS,ioos:station:USF.COMPS:SHP:1,2009-01-02T02:36:00Z,30.0600,-84.2910,-0.098,1111122 
COMPS,ioos:station:USF.COMPS:SHP:1,2009-01-02T02:42:00Z,30.0600,-84.2910,-0.103,1111122 
COMPS,ioos:station:USF.COMPS:SHP:1,2009-01-02T02:48:00Z,30.0600,-84.2910,-0.102,1111122 